STARLINK-32220, 60370

Orbit data source: Space-Track

STARLINK-32220, 60370 is a payload satellite owned by SpaceX/Seattle (US) in LEO that was launched on Sun, 04 Aug 2024 UTC via an FALCON 9 launch vehicle from the Air Force Western Test Range (AFWTR). Payload-class satellites include a variety of spacecraft equipped with specific instruments for various scientific and technological missions. These include communications satellites like Starlink; space stations such as the ISS; scientific satellites like the Hubble; Earth observation satellites from companies like Planet Labs, Umbra, and HawkEye 360; GPS; miniature CubeSats for education and research; and military/defense satellites.

Loading next visibility...
Identifier
60370, 2024-138R
Orbit
LEO
Country
Flag of USUS
Related business
Manufacturer
SpaceX/Seattle
Mission
Operational Commercial Communications
Bus & Motor
STARLINK V2M, Unknown motor
Mass
730 kg wet, ~700 kg dry
Launch date (UTC)
2024-08-04 (1 year ago)
Launch vehicle
FALCON 9
Launch site
Air Force Western Test Range (AFWTR)
Object type
Payload
Rocket body
Debris
Shape & HBR
Box + 2 Pan, 17.7 m
Radar Cross Section
33.884 m², Large (>1 m²)

Expand to show TLE details & history
Last TLE update: 18 hours ago

TLE from 18 hours ago
0 STARLINK-32220
1 60370U 24138R   25291.15936054 -.00000271  00000-0  29690-5 0  9998
2 60370  53.1602 251.7778 0001286  84.3964 275.7183 15.30201050 68805
Epoch: 2025-10-18T03:49Z
TLE epoch observation values (Epoch: 2025-10-18T03:49:28.750Z)
Latitude
-0.00006°
Longitude
167.51358°
Altitude
476.024 km
Speed
7.629 km/s
True Right ascension
16h 47m 06s
True Declination
0° 00' 00"
Sunlit
Object was in daylight at epoch
Visualization orbit readout
Latitude
Unknown
Longitude
Unknown
Altitude
Unknown
Speed
Unknown
Apparent Right ascension
Unknown
Apparent Declination
Unknown
Sunlit
N/A
Visualization observer readout
Local Sidereal Time
17:09:27
Azimuth
Unknown
Elevation
Unknown
Doppler factor
Unknown
Orbital elements
Apogee altitude
476.35 km
Perigee altitude
474.587 km
Semi-major axis
6,853.605 km
Eccentricity
0.00013
Inclination
53.1602°
RAAN
251.7778°
Arg. of periapsis
84.3964°
True anomaly
275.70364°
Mean anomaly
275.7183°
Eccentric anomaly
275.71097°
Mean motion
3.82529 °/min
Orbital period
94.11 mins
BSTAR
0.000002969
Loading maneuver chart data...
Computing Atmospheric mass density...
Loading historical data...
Loading historical data...
Loading historical data...
Loading historical data...
Loading historical data...
Loading historical data...
Loading historical data...

Documentation

Showing up to 5 results
|